Regional Weather Roundup
Issued by NWS Wakefield, VA

Home | Current Version | Previous Version | Graphics & Text | Print | Product List | Glossary On
Versions: 1 2 3 4 5 6 7 8 9 10 11 12 13 14 15 16 17 18 19 20 21 22 23 24 25 26 27
000
ASUS41 KAKQ 290515
RWRAKQ

REGIONAL WEATHER ROUNDUP
NATIONAL WEATHER SERVICE WAKEFIELD VA
100 AM EDT THU SEP 29 2016

Note: "fair" indicates few or no clouds below 12,000 feet with no
significant weather and/or obstructions to visibility. * = Denotes
station may not report precipitation (e.g., rain,snow,etc.),
thunder or fog.

VAZ042-051-052>054-056-290600-
NORTHERN VIRGINIA

CITY           SKY/WX    TMP DP  RH WIND       PRES   REMARKS
WASH NATIONAL  CLOUDY    70  68  93 E13       30.03S
DULLES         RAIN      68  66  93 E13G24    30.02R
FORT BELVOIR   CLOUDY    70  66  88 VRB3      30.01S
QUANTICO       CLOUDY    72  68  88 SE12      30.02R
FREDERICKSBRG* LGT RAIN  68  68 100 E9G18     29.99F
STAFFORD*      CLOUDY    68  67  97 SE8G20    30.04F
WARRENTON      RAIN      70  65  84 E10       30.00R
CULPEPER*      LGT RAIN  69  69  98 S5        30.02R
MANASSAS*      CLOUDY    70  70 100 E10       30.00S
LEESBURG*      CLOUDY    66  66 100 E9G16     30.03F
WINCHESTER     CLOUDY    64  63  94 N3        30.02S
FRONT ROYAL*   CLOUDY    64  64 100 CALM      30.01R
LURAY*         MOCLDY   N/A N/A N/A CALM      30.01S
$$

VAZ048-049-060>072-079>083-290600-
CENTRAL AND SOUTH CENTRAL VIRGINIA

CITY           SKY/WX    TMP DP  RH WIND       PRES   REMARKS
RICHMOND       TSTM      65  64  97 E9        30.01R FOG
CHESTERFIELD*  CLOUDY    68  54  60 SE7       30.01S
PETERSBURG*    RAIN     N/A N/A N/A SE5       30.01R
HANOVER        NOT AVBL
TAPPAHANNOCK*  RAIN      67  67 100 E8        30.04F
QUINTON*       CLOUDY    65  65 100 E7G17     30.01R FOG
CHARLOTTSVILLE CLOUDY    68  66  93 NE6       30.02R
GORDONSVILLE*  CLOUDY    66  66 100 CALM      30.01R
ORANGE*        HVY RAIN  68  68 100 CALM      30.03R
LOUISA*        HVY RAIN  70  68  94 SE6       30.01R
BUMPASS*       CLOUDY    65  65 100 E7        30.00R VSB 1
FARMVILLE*     CLOUDY    69  68  97 N6        29.97F
CREWE*         CLOUDY    69  69 100 CALM      29.98S
FORT PICKETT*  CLOUDY   N/A N/A N/A S12       29.99S
CHASE CITY*    FAIR      67  65  94 S6        29.99S
CLARKSVILLE*   CLOUDY    66  66 100 S6        30.00R
SOUTH HILL*    CLOUDY    70  69  99 SW3       30.06R
LAWRENCEVILLE* CLOUDY    72  71  96 SE5       30.00S
EMPORIA*         N/A     72  70  94 E6        30.02S
$$

VAZ088>098-290600-
SOUTHEAST VIRGINIA

CITY           SKY/WX    TMP DP  RH WIND       PRES   REMARKS
NORFOLK        PTCLDY    72  70  93 SW3       30.02R
VIRGINIA BEACH MOCLDY    73  70  90 CALM      30.01S
NORFOLK NAVAL  CLOUDY    73  70  90 CALM      30.04R
WEST POINT*    MOCLDY    66  65  97 E6        30.05F
SALUDA*        CLOUDY    68  68  99 E3        30.04S
NEWPORT NEWS   CLOUDY    70  67  90 E6        30.04R
LANGLEY AFB    CLOUDY    72  69  91 NE6       30.03R
FORT EUSTIS    CLOUDY    71  67  87 VRB5      30.01S
WILLIAMSBURG*  CLOUDY    70  66  88 CALM      30.05R
HR EXEC AP*    FAIR      66  64  94 CALM      30.05R
FRANKLIN*      MOCLDY    70  69  95 E5        30.02S
US460-WAKEFLD  MOCLDY    72  69  90 VRB3      30.02R
$$

VAZ020-022-025-037-045-290600-
WEST CENTRAL AND SOUTHWEST VIRGINIA

CITY           SKY/WX    TMP DP  RH WIND       PRES   REMARKS
STAUNTON*      HVY RAIN  62  60  96 CALM      30.04F
WAYNESBORO*    CLOUDY    62  61  96 CALM      30.03R
HOT SPRINGS VA RAIN      58  58 100 E7        30.07R VSB<1/4
LYNCHBURG      CLOUDY    65  65 100 CALM      30.02R
DANVILLE       TSTM      66  64  93 VRB5      29.96F
SOUTH BOSTON*  CLOUDY    66  64  96 SE3       29.98R
MARTINSVILLE   CLOUDY    66  64  91 CALM      30.00S
ROANOKE        LGT RAIN  64  64 100 NW5       30.03R
BLACKSBURG     RAIN      62  62  99 E14       30.03F
DUBLIN*        DRZL/FOG  62  62 100 N3        30.03R VSB 1/2
MARION*        CLEAR     57  50  77 CALM      30.06R
HILLSVILLE*    CLOUDY    64  64 100 CALM      30.02R FOG
RICHLANDS*     MOCLDY    55  51  89 E3        30.06S
WISE*          CLOUDY    55  52  88 E3        30.05R
ABINGDON*      CLEAR     58  50  74 CALM      30.01R
$$

MDZ021>025-VAZ099-100-290600-
SOUTHERN MARYLAND AND THE DELMARVA PENINSULA

CITY           SKY/WX    TMP DP  RH WIND       PRES   REMARKS
PATUXENT RIVER RAIN      69  67  93 E20G26    30.03S
BAY BRIDGE APT RAIN      68  66  94 MISG      30.05F FOG
LEONARDTOWN    CLOUDY    68  64  88 E8G17     30.05R
DOVER          LGT RAIN  66  66 100 NE22G30   30.10F FOG
GEORGETOWN     TSTM      68  67  96 E14G24    30.09S FOG
EASTON         NOT AVBL
CAMBRIDGE      CLOUDY    66  64  94 E6        30.08S
SALISBURY      LGT RAIN  69  69 100 E12G32    30.03F
OCEAN CITY     LGT RAIN  72  68  87 E23G32    30.04F
WALLOPS ISLAND CLOUDY    73  72  96 E20       30.03F THUNDER
ACCOMACK*      CLOUDY    69  66  90 W12G21    30.04R
$$

NCZ012>017-030>032-290600-
NORTH CENTRAL AND EASTERN NORTH CAROLINA

CITY           SKY/WX    TMP DP  RH WIND       PRES   REMARKS
ROANOKE RAPIDS CLOUDY    70  70 100 CALM      30.01S
RALEIGH        TSTM      66  65  96 SE5       29.99F
ELIZABETH CITY CLEAR     74  71  91 SE5       30.01S
AHOSKIE*       CLOUDY    69  69  99 CALM      30.01F
EDENTON*       CLEAR     76  76 100 SE7       30.01S
CURRITUCK*     NOT AVBL
KILL DEVIL HLS CLEAR     74  74 100 SE5       30.00F
MANTEO         CLEAR     73  73 100 SE7       30.01F
CAPE HATTERAS  PTCLDY    78  74  87 SE5       30.00F
TARBORO*       CLOUDY    72  71  97 CALM      30.01S
GOLDSBORO      CLOUDY    72  72 100 E5        29.97F
WASHINGTON     CLOUDY    74  70  87 S3        30.01R
GREENVILLE     CLOUDY    73  72  94 S5        30.02R
NEW BERN       PTCLDY    70  68  93 SE3       30.01S
WILMINGTON     CLEAR     75  71  87 S6        29.98S
$$

VAZ048-290600-
ELSEWHERE

CITY           SKY/WX    TMP DP  RH WIND       PRES   REMARKS
HARRISBURG PA  RAIN      61  59  93 E15G24    30.12F FOG
BALTIMORE      LGT RAIN  67  65  93 E21       30.05F
ANNAPOLIS      RAIN      70  67  90 E16G28    30.03F FOG
ANDREWS AFB    DRIZZLE   68  66  94 E14G20    30.02F
PHILADELPHIA   LGT RAIN  61  58  90 E14G20    30.20R
HENDERSON NC   LGT RAIN  65  63  93 CALM      30.00S
GREENSBORO     CLOUDY    67  67 100 SE13      29.96R
ROCKY MOUNT    CLOUDY    72  72 100 CALM      29.99F
$$

VAZ100-290600-
MARINE

STATION/POSITION TIME  TEMP    WIND        PRES    WAVE   SWELL
                       AIR SEA DIR/SP/G            HT/PER HT/PER
                 (UTC) (F)     (DEG/KT/KT) (MB)    (FT/S) (FT/S)
BRANDYWINE LGT   0448   67      80/ 26/ 29   N/A
CAPE MAY NJ      0448   67 72   60/ 13/ 23 1019.2S
LEWES DE         0448   68 71   80/ 25/ 30 1018.4F
OCEAN-CITY-INLET 0448   71 73  100/ 17/ 27 1017.6F
WACHAPREAGUE VA  0448   71 74  260/  7/ 13 1017.2R
THOMAS POINT MD  0500   69 73  100/ 28/ 32 1017.4F
GOOSES REEF MD   0450   70     120/ 23/ 31 1017.0F
COVE POINT MD    0448   68     110/ 23/ 27 1017.5F
SOLOMONS ISLAND  0448   70 74   80/ 21/ 25   N/A
BISHOPS HEAD MD  0448   69 71   40/ 16/ 23 1017.7F
PINEY POINT MD   0448           90/ 14/ 17   N/A
POTOMAC MD       0450   71      70/ 19/ 25 1015.8F
CAMBRIDGE MD     0448   69 72   80/ 13/ 16 1017.2F
LEWISETTA VA     0448   71 72   80/ 17/ 23 1016.0F
RAPPAHANNOCK LGT 0448          360/ 15/ 16 1017.9F
STINGRAY PT      0450   71     360/ 14/ 17 1017.3F
YORK RVR RNG VA  0448   72      70/ 15/ 17 1016.4S
YORKTOWN VA      0448   70 76   70/  7/  9 1016.7R
JAMESTOWN VA     0450   68      70/  6/ 10   N/A
DOMINION TERM VA 0448   74     170/  5/  6 1016.8R
KIPTOPEKE VA     0448      76   30/  3/  3   N/A
CHES BAY BRIDGE  0448   75 76  160/  5/  6 1016.5R
CAPE HENRY VA    0448   75     170/  5/  7   N/A
WILLOUBY STN VA  0448   74      30/  3/  4   N/A
CAPE HENRY BUOY  0442      76                N/A     4/ 8   2/12
1ST LANDING BUOY 0450   76     190/  6/  8 1016.5R
CAPE CHARLES BUO 0356      76                N/A     3/ 8   2/11
OFFSHORE WE BUOY 0351      76                N/A     5/ 7   2/11
64NM E OF VA BCH 0450   75 74  110/  2/  4 1016.5F   5/ 8   5/ 8
DUCK PIER NC     0448   76 77  130/ 10/ 11 1015.7S
44056 DUCK FRF   0441      77                N/A     4/ 8   2/11
OREGON INLET NC  0442   75 78  100/  3/  5 1016.2F
HATTERAS NC      0442   79 79  150/  6/  9 1015.6F
DIAMOND SHLS NC  0450   81 83  150/ 10/ 12 1015.9F   4/ 8   3/ 8
CAPE LOOKOUT NC  0400   80     160/  8/  9 1015.5S
$$




USA.gov is the U.S. government's official web portal to all federal, state and local government web resources and services.